EW1336 Weather Reports


Display with metric or nautical units.
time (UTC)temp
F
wind
direction
speed
MPH
gust
MPH
rain 1hr
in
rain 24hr
in
rain mn
in
humidity
%
barometer
mb
20260509023035 55 53 0.0 0.0 0.00 0.00 0.00 49 1013.1
20260509021532 56 53 0.0 0.0 0.00 0.00 0.00 48 1013.2
20260509020031 57 280 0.0 0.0 0.00 0.00 0.00 45 1013.2
20260509014531 59 276 0.0 1.0 0.00 0.00 0.00 43 1013.0
20260509013038 60 248 0.0 1.0 0.00 0.00 0.00 39 1013.0
20260509011529 60 266 0.0 1.0 0.00 0.00 0.00 38 1012.9
20260509010028 61 266 0.0 1.0 0.00 0.00 0.00 36 1013.0
20260509004526 62 217 0.0 2.0 0.00 0.00 0.00 34 1013.0
20260509003025 62 257 0.0 1.0 0.00 0.00 0.00 32 1013.3
20260509001523 63 210 0.0 3.0 0.00 0.00 0.00 30 1013.3
20260509000022 65 255 0.0 2.0 0.00 0.00 0.00 29 1013.2
20260508234522 66 269 0.0 3.0 0.00 0.00 0.00 28 1013.2
20260508233019 66 245 0.0 2.0 0.00 0.00 0.00 27 1013.4
20260508231517 66 222 0.0 2.0 0.00 0.00 0.00 24 1013.5
20260508230036 65 269 0.0 4.0 0.00 0.00 0.00 23 1013.7
20260508224539 66 285 0.0 4.0 0.00 0.00 0.00 22 1013.8
20260508223024 66 266 1.0 4.0 0.00 0.00 0.00 22 1014.0
20260508221510 66 235 0.0 3.0 0.00 0.00 0.00 24 1014.0
20260508220009 66 279 0.0 4.0 0.00 0.00 0.00 21 1014.2
20260508214507 66 273 1.0 4.0 0.00 0.00 0.00 21 1014.3
20260508213007 66 257 0.0 3.0 0.00 0.00 0.00 21 1014.4
20260508211506 66 304 0.0 3.0 0.00 0.00 0.00 21 1014.4
20260508210003 66 174 1.0 4.0 0.00 0.00 0.00 21 1014.5
20260508204505 65 316 0.0 3.0 0.00 0.00 0.00 22 1014.5
20260508203116 65 212 0.0 3.0 0.00 0.00 0.00 22 1014.6
20260508201557 64 278 0.0 2.0 0.00 0.00 0.00 22 1014.9
20260508200056 63 266 0.0 4.0 0.00 0.00 0.00 23 1015.1
20260508194553 62 214 0.0 3.0 0.00 0.00 0.00 21 1015.2
20260508193120 61 120 0.0 2.0 0.00 0.00 0.00 26 1015.2
20260508191550 60 231 0.0 2.0 0.00 0.00 0.00 29 1015.3
20260508190047 58 235 0.0 1.0 0.00 0.00 0.00 28 1015.4
20260508184607 59 248 0.0 1.0 0.00 0.00 0.00 27 1015.5
20260508183045 59 225 0.0 1.0 0.00 0.00 0.00 26 1015.6
20260508181542 59 203 0.0 1.0 0.00 0.00 0.00 27 1015.6
20260508180043 59 222 0.0 1.0 0.00 0.00 0.00 28 1015.5
20260508174555 58 211 0.0 2.0 0.00 0.00 0.00 32 1015.4
20260508173034 56 234 0.0 2.0 0.00 0.00 0.00 35 1015.5
20260508171536 55 217 0.0 2.0 0.00 0.00 0.00 39 1015.5
20260508170028 53 252 0.0 2.0 0.00 0.00 0.00 42 1015.5
20260508164534 52 208 0.0 2.0 0.00 0.00 0.00 42 1015.5
20260508163028 51 235 0.0 0.0 0.00 0.00 0.00 42 1015.5
20260508161535 50 242 0.0 1.0 0.00 0.00 0.00 42 1015.7
20260508160014 48 176 0.0 0.0 0.00 0.00 0.00 45 1015.9
20260508154510 46 176 0.0 0.0 0.00 0.00 0.00 44 1015.7
20260508153005 45 176 0.0 0.0 0.00 0.00 0.00 52 1015.7
20260508151503 43 174 0.0 1.0 0.00 0.00 0.00 56 1015.8
20260508150057 42 175 0.0 1.0 0.00 0.00 0.00 57 1015.8
20260508144553 40 174 0.0 1.0 0.00 0.00 0.00 55 1015.6
20260508143053 38 181 0.0 1.0 0.00 0.00 0.00 56 1015.6
20260508141550 37 194 0.0 1.0 0.00 0.00 0.00 53 1015.6
20260508140050 37 225 0.0 0.0 0.00 0.00 0.00 51 1015.5
20260508134551 37 239 0.0 0.0 0.00 0.00 0.00 50 1015.4
20260508133102 37 236 0.0 0.0 0.00 0.00 0.00 49 1015.4
20260508131545 38 233 0.0 1.0 0.00 0.00 0.00 48 1015.2
20260508130043 37 201 0.0 1.0 0.00 0.00 0.00 46 1015.0
20260508124542 37 198 0.0 1.0 0.00 0.00 0.00 47 1015.1
20260508123041 38 203 0.0 1.0 0.00 0.00 0.00 45 1015.0
20260508121539 38 200 0.0 0.0 0.00 0.00 0.00 45 1014.8
20260508120043 37 200 0.0 1.0 0.00 0.00 0.00 46 1014.8
20260508114537 37 204 0.0 0.0 0.00 0.00 0.00 47 1014.8
20260508113044 36 204 0.0 1.0 0.00 0.00 0.00 51 1014.8
20260508111535 37 183 0.0 1.0 0.00 0.00 0.00 48 1014.8
20260508110034 37 152 0.0 0.0 0.00 0.00 0.00 48 1014.6
20260508104533 36 204 0.0 0.0 0.00 0.00 0.00 51 1014.7
20260508103035 36 239 0.0 0.0 0.00 0.00 0.00 51 1014.7
20260508101537 36 242 0.0 0.0 0.00 0.00 0.00 52 1014.6
20260508100029 36 238 0.0 1.0 0.00 0.00 0.00 53 1014.5
20260508094527 36 263 0.0 1.0 0.00 0.00 0.00 52 1014.5
20260508093027 36 250 0.0 1.0 0.00 0.00 0.00 53 1014.6
20260508091536 36 242 0.0 0.0 0.00 0.00 0.00 54 1014.6
20260508090022 37 212 0.0 1.0 0.00 0.00 0.00 53 1014.5
20260508084520 37 190 0.0 0.0 0.00 0.00 0.00 53 1014.5
20260508083029 38 231 0.0 0.0 0.00 0.00 0.00 54 1014.6
20260508081516 38 204 0.0 0.0 0.00 0.00 0.00 55 1014.8
20260508080014 38 150 0.0 1.0 0.00 0.00 0.00 54 1014.9
20260508074513 38 224 0.0 0.0 0.00 0.00 0.00 55 1014.8
20260508073014 39 226 0.0 0.0 0.00 0.00 0.00 55 1014.9
20260508071509 39 229 0.0 1.0 0.00 0.00 0.00 58 1014.9
20260508070007 39 229 0.0 0.0 0.00 0.00 0.00 59 1014.8
20260508064507 40 225 0.0 0.0 0.00 0.00 0.00 59 1014.8
20260508063003 40 224 0.0 0.0 0.00 0.00 0.00 59 1014.8
20260508061503 41 219 0.0 0.0 0.00 0.00 0.00 60 1014.9
20260508060059 41 215 0.0 0.0 0.00 0.00 0.00 63 1014.8
20260508054600 42 207 0.0 0.0 0.00 0.00 0.00 65 1014.9
20260508053103 43 207 0.0 0.0 0.00 0.00 0.00 66 1014.7
20260508051619 44 204 0.0 0.0 0.00 0.00 0.00 63 1014.6
20260508050058 45 204 0.0 0.0 0.00 0.00 0.00 67 1014.7
20260508044557 46 204 0.0 0.0 0.00 0.00 0.00 68 1014.8
20260508043057 47 204 0.0 0.0 0.00 0.00 0.00 68 1014.8
20260508041556 48 243 0.0 0.0 0.00 0.00 0.00 66 1014.5
20260508040056 49 243 0.0 0.0 0.00 0.00 0.00 67 1014.1
20260508034555 49 248 0.0 0.0 0.00 0.00 0.00 67 1013.7
20260508033056 50 248 0.0 0.0 0.00 0.00 0.00 65 1013.3
20260508031556 51 248 0.0 0.0 0.00 0.00 0.00 62 1013.1
20260508030054 52 248 0.0 0.0 0.00 0.00 0.00 57 1012.9
20260508024552 53 218 0.0 1.0 0.00 0.00 0.00 51 1012.8